• In Moldova, Republic
  • List of Countries
  • For 7 days
  • Water Temperature
  • Satellite Maps
  • Weather Map
  • Weather Widgets
  • user-avatar
    Login

    Hourly Weather Darwin

    Today, 20 November, Monday

    Time Temperature Precipitation Wind Pressure Humidity
    00:00 +31°C° 0 mm 2 mps 756 mmHg 72%
    01:00 +31°C° 0 mm 2 mps 756 mmHg 73%
    02:00 +30°C° 0 mm 2 mps 756 mmHg 74%
    03:00 +30°C° 0 mm 1 mps 756 mmHg 77%
    04:00 +30°C° 0 mm 1 mps 756 mmHg 77%
    05:00 +30°C° 0 mm 1 mps 756 mmHg 78%
    06:00 +30°C° 0 mm 1 mps 756 mmHg 78%
    07:00 +32°C° 0 mm 1 mps 756 mmHg 69%
    08:00 +34°C° 0 mm 1 mps 757 mmHg 59%
    09:00 +36°C° 0 mm 2 mps 757 mmHg 54%
    10:00 +38°C° 0 mm 2 mps 757 mmHg 48%
    11:00 +40°C° 0 mm 2 mps 756 mmHg 42%
    12:00 +42°C° 0 mm 2 mps 756 mmHg 35%
    13:00 +41°C° 0 mm 2 mps 755 mmHg 37%
    14:00 +40°C° 0 mm 3 mps 755 mmHg 39%
    15:00 +38°C° 0 mm 3 mps 755 mmHg 46%
    16:00 +37°C° 0.2 mm 3 mps 755 mmHg 50%
    17:00 +36°C° 0.2 mm 3 mps 755 mmHg 53%
    18:00 +35°C° 0.2 mm 3 mps 755 mmHg 56%
    19:00 +34°C° 0 mm 3 mps 755 mmHg 59%
    20:00 +34°C° 0 mm 3 mps 755 mmHg 62%
    21:00 +33°C° 0 mm 3 mps 756 mmHg 67%
    22:00 +31°C° 0.2 mm 3 mps 756 mmHg 71%
    23:00 +31°C° 0.2 mm 3 mps 756 mmHg 75%

    Tomorrow, 21 November, Tuesday

    Time Temperature Precipitation Wind Pressure Humidity
    00:00 +30°C° 0.2 mm 3 mps 756 mmHg 79%
    01:00 +30°C° 0 mm 2 mps 755 mmHg 81%
    02:00 +30°C° 0 mm 2 mps 755 mmHg 82%
    03:00 +30°C° 0 mm 2 mps 755 mmHg 84%
    04:00 +30°C° 0 mm 2 mps 755 mmHg 84%
    05:00 +30°C° 0 mm 2 mps 755 mmHg 85%
    06:00 +29°C° 0 mm 2 mps 755 mmHg 86%
    07:00 +31°C° 0 mm 2 mps 755 mmHg 76%
    08:00 +34°C° 0 mm 2 mps 755 mmHg 66%
    09:00 +35°C° 0 mm 3 mps 756 mmHg 56%
    10:00 +37°C° 0 mm 3 mps 755 mmHg 51%
    11:00 +38°C° 0 mm 3 mps 755 mmHg 47%
    12:00 +39°C° 0 mm 3 mps 755 mmHg 42%
    13:00 +39°C° 0 mm 3 mps 754 mmHg 41%
    14:00 +40°C° 0 mm 4 mps 754 mmHg 39%
    15:00 +40°C° 0 mm 4 mps 754 mmHg 38%
    16:00 +38°C° 0.2 mm 4 mps 754 mmHg 43%
    17:00 +36°C° 0.2 mm 3 mps 754 mmHg 49%
    18:00 +35°C° 0.2 mm 3 mps 754 mmHg 55%
    19:00 +34°C° 0.4 mm 3 mps 754 mmHg 60%
    20:00 +33°C° 0.4 mm 3 mps 754 mmHg 65%
    21:00 +31°C° 0.4 mm 3 mps 754 mmHg 70%
    22:00 +31°C° 0.5 mm 3 mps 754 mmHg 72%
    23:00 +31°C° 0.5 mm 3 mps 754 mmHg 74%

    Day after tomorrow, 22 November, Wednesday

    Time Temperature Precipitation Wind Pressure Humidity
    00:00 +31°C° 0.5 mm 2 mps 755 mmHg 76%
    01:00 +30°C° 0.6 mm 2 mps 754 mmHg 79%
    02:00 +30°C° 0.6 mm 2 mps 754 mmHg 81%
    03:00 +29°C° 0.6 mm 1 mps 754 mmHg 83%
    04:00 +29°C° 0 mm 2 mps 754 mmHg 83%
    05:00 +29°C° 0 mm 2 mps 754 mmHg 83%
    06:00 +29°C° 0 mm 3 mps 754 mmHg 83%
    07:00 +31°C° 0.4 mm 2 mps 755 mmHg 76%
    08:00 +32°C° 0.4 mm 2 mps 755 mmHg 69%
    09:00 +35°C° 0.4 mm 2 mps 755 mmHg 62%
    10:00 +36°C° 0.1 mm 2 mps 755 mmHg 58%
    11:00 +37°C° 0.1 mm 2 mps 754 mmHg 53%
    12:00 +38°C° 0.1 mm 2 mps 754 mmHg 49%
    13:00 +37°C° 0 mm 2 mps 753 mmHg 49%
    14:00 +37°C° 0 mm 3 mps 753 mmHg 50%
    15:00 +37°C° 0 mm 3 mps 752 mmHg 50%
    16:00 +36°C° 0.3 mm 3 mps 752 mmHg 55%
    17:00 +35°C° 0.3 mm 3 mps 752 mmHg 60%
    18:00 +34°C° 0.3 mm 3 mps 752 mmHg 64%
    19:00 +33°C° 0.3 mm 3 mps 753 mmHg 68%
    20:00 +33°C° 0.3 mm 3 mps 753 mmHg 71%
    21:00 +31°C° 0.3 mm 3 mps 754 mmHg 75%
    22:00 +31°C° 1.1 mm 3 mps 754 mmHg 77%
    23:00 +30°C° 1.1 mm 3 mps 754 mmHg 79%

    23 November, Thursday

    Time Temperature Precipitation Wind Pressure Humidity
    00:00 +30°C° 1.1 mm 3 mps 754 mmHg 81%
    01:00 +30°C° 0 mm 3 mps 753 mmHg 82%
    02:00 +30°C° 0 mm 3 mps 753 mmHg 83%
    03:00 +29°C° 0 mm 3 mps 753 mmHg 83%
    04:00 +29°C° 0.4 mm 3 mps 753 mmHg 83%
    05:00 +29°C° 0.4 mm 2 mps 753 mmHg 83%
    06:00 +29°C° 0.4 mm 2 mps 754 mmHg 83%
    07:00 +31°C° 0 mm 2 mps 754 mmHg 76%
    08:00 +32°C° 0 mm 2 mps 755 mmHg 69%
    09:00 +35°C° 0 mm 2 mps 755 mmHg 63%
    10:00 +36°C° 0.1 mm 2 mps 755 mmHg 59%
    11:00 +37°C° 0.1 mm 2 mps 755 mmHg 55%
    12:00 +38°C° 0.1 mm 2 mps 754 mmHg 51%
    13:00 +38°C° 0.3 mm 3 mps 754 mmHg 52%
    14:00 +37°C° 0.3 mm 3 mps 753 mmHg 52%
    15:00 +37°C° 0.3 mm 4 mps 752 mmHg 53%
    16:00 +36°C° 1.3 mm 4 mps 752 mmHg 60%
    17:00 +34°C° 1.3 mm 4 mps 753 mmHg 66%
    18:00 +33°C° 1.3 mm 3 mps 753 mmHg 73%
    19:00 +31°C° 0.3 mm 3 mps 753 mmHg 76%
    20:00 +31°C° 0.3 mm 3 mps 754 mmHg 78%
    21:00 +30°C° 0.3 mm 3 mps 755 mmHg 81%
    22:00 +30°C° 0.6 mm 3 mps 754 mmHg 82%
    23:00 +30°C° 0.6 mm 3 mps 754 mmHg 83%

    24 November, Friday

    Time Temperature Precipitation Wind Pressure Humidity
    00:00 +30°C° 0.6 mm 3 mps 754 mmHg 84%
    01:00 +29°C° 0.7 mm 3 mps 754 mmHg 85%
    02:00 +29°C° 0.7 mm 3 mps 754 mmHg 85%
    03:00 +29°C° 0.7 mm 2 mps 754 mmHg 86%
    04:00 +29°C° 0.7 mm 2 mps 754 mmHg 86%
    05:00 +29°C° 0.7 mm 2 mps 754 mmHg 86%
    06:00 +29°C° 0.7 mm 1 mps 755 mmHg 86%
    07:00 +31°C° 0.3 mm 1 mps 755 mmHg 79%
    08:00 +30°C° 0.3 mm 0 mps 756 mmHg 71%
    09:00 +32°C° 0.3 mm 0 mps 757 mmHg 63%
    10:00 +35°C° 0 mm 1 mps 756 mmHg 57%
    11:00 +37°C° 0 mm 1 mps 756 mmHg 51%
    12:00 +39°C° 0 mm 2 mps 755 mmHg 45%
    13:00 +39°C° 0 mm 2 mps 755 mmHg 45%
    14:00 +39°C° 0 mm 2 mps 754 mmHg 44%
    15:00 +39°C° 0 mm 2 mps 753 mmHg 44%
    16:00 +37°C° 0.1 mm 3 mps 753 mmHg 50%
    17:00 +36°C° 0.1 mm 3 mps 754 mmHg 57%
    18:00 +34°C° 0.1 mm 3 mps 754 mmHg 64%
    19:00 +34°C° 0.2 mm 3 mps 754 mmHg 66%
    20:00 +33°C° 0.2 mm 3 mps 755 mmHg 68%
    21:00 +33°C° 0.2 mm 3 mps 755 mmHg 70%
    22:00 +31°C° 0.5 mm 3 mps 755 mmHg 74%
    23:00 +31°C° 0.5 mm 3 mps 755 mmHg 77%

    25 November, Saturday

    Time Temperature Precipitation Wind Pressure Humidity
    00:00 +30°C° 0.5 mm 3 mps 755 mmHg 81%
    01:00 +30°C° 0.6 mm 2 mps 755 mmHg 82%
    02:00 +30°C° 0.6 mm 2 mps 755 mmHg 83%
    03:00 +30°C° 0.6 mm 1 mps 754 mmHg 83%
    04:00 +29°C° 1.1 mm 1 mps 755 mmHg 84%
    05:00 +29°C° 1.1 mm 1 mps 755 mmHg 84%
    06:00 +29°C° 1.1 mm 1 mps 756 mmHg 84%
    07:00 +30°C° 0.8 mm 1 mps 756 mmHg 81%
    08:00 +30°C° 0.8 mm 1 mps 757 mmHg 78%
    09:00 +31°C° 0.8 mm 2 mps 757 mmHg 74%
    10:00 +32°C° 0 mm 2 mps 757 mmHg 69%
    11:00 +34°C° 0 mm 2 mps 756 mmHg 64%
    12:00 +35°C° 0 mm 2 mps 756 mmHg 58%
    13:00 +36°C° 0 mm 2 mps 755 mmHg 56%
    14:00 +36°C° 0 mm 2 mps 755 mmHg 53%
    15:00 +37°C° 0 mm 2 mps 754 mmHg 50%
    16:00 +36°C° 0.2 mm 2 mps 754 mmHg 54%
    17:00 +35°C° 0.2 mm 2 mps 754 mmHg 57%
    18:00 +35°C° 0.2 mm 2 mps 754 mmHg 60%
    19:00 +34°C° 0 mm 3 mps 755 mmHg 63%
    20:00 +33°C° 0 mm 3 mps 755 mmHg 67%
    21:00 +31°C° 0 mm 3 mps 756 mmHg 71%
    22:00 +31°C° 0.2 mm 3 mps 755 mmHg 73%
    23:00 +30°C° 0.2 mm 3 mps 755 mmHg 76%
    Show more